Weather History for Douglas, WY

Change the Weather History Date:

Friday, November 11, 2011

  Actual Average Record
Temperature  
Mean Temperature 44 °F 35 °F  
Max Temperature 57 °F 49 °F 68 °F (1999)
Min Temperature 30 °F 22 °F -12 °F (2000)
Degree Days  
Heating Degree Days 21 30  
Month to date heating degree days 376 300  
Since 1 July heating degree days 1062 1167  
Cooling Degree Days 0 0  
Month to date cooling degree days 0 0  
Year to date cooling degree days 641 486  
Moisture  
Dew Point 8 °F    
Average Humidity 27    
Maximum Humidity 41    
Minimum Humidity 13    
Precipitation  
Precipitation 0.00 in 0.02 in 0.04 in (2002)
Month to date precipitation 0.21 0.29  
Year to date precipitation 12.88 12.63  
Sea Level Pressure  
Sea Level Pressure 29.73 in    
Wind  
Wind Speed 11 mph (West)    
Max Wind Speed 25 mph    
Max Gust Speed 31 mph    
Visibility 10 miles    
Events      
T = Trace of Precipitation, MM = Missing Value Source: NWS Daily Summary

Daily Weather History Graph

Daily Weather History Graph

Search for Another Location

Airport:

Trip Planner

Search our weather history database for the weather conditions in past years. The results will help you decide how hot, cold, wet, or windy it might be!

Date:

Astronomy

Nov. 11, 2011 Rise Set
Actual Time 6:48 AM MST 4:42 PM MST
Civil Twilight 6:17 AM MST 5:12 PM MST
Nautical Twilight 5:43 AM MST 5:46 PM MST
Astronomical Twilight 5:10 AM MST 6:19 PM MST
Moon 5:11 PM MST (11/11) 7:41 AM MST (11/11)
Length of Visible Light 10h 54m
Length of Day
9h 54m
Full, 99% of the Moon is Illuminated
Nov 11
Full
Nov 18
Last Quarter
Nov 24
New
Dec 2
First Quarter
Dec 10
Full

Hourly Weather History & Observations

Time (MST) Temp. Windchill Dew Point Humidity Pressure Visibility Wind Dir Wind Speed Gust Speed Precip Events Conditions
12:53 AM 33.1 °F 26.1 °F 12.0 °F 42% 29.92 in 10.0 mi West 8.1 mph - N/A   Clear
1:53 AM 39.0 °F - 10.0 °F 30% 29.90 in 10.0 mi Calm Calm - N/A   Clear
2:53 AM 39.9 °F 32.5 °F 10.0 °F 29% 29.89 in 10.0 mi WNW 12.7 mph - N/A   Clear
5:53 AM 41.0 °F 31.1 °F 9.0 °F 27% 29.88 in 10.0 mi WSW 23.0 mph 28.8 mph N/A   Clear
6:53 AM 32.0 °F 25.6 °F 10.0 °F 40% 29.94 in 10.0 mi NW 6.9 mph - N/A   Clear
9:53 AM 51.1 °F - 6.1 °F 16% 29.82 in 10.0 mi West 21.9 mph - N/A   Clear
10:53 AM 54.0 °F - 5.0 °F 14% 29.81 in 10.0 mi West 23.0 mph 31.1 mph N/A   Clear
11:53 AM 55.0 °F - 6.1 °F 14% 29.78 in 10.0 mi West 13.8 mph 25.3 mph N/A   Clear
12:53 PM 55.9 °F - 8.1 °F 15% 29.75 in 10.0 mi West 21.9 mph 27.6 mph N/A   Clear
1:53 PM 55.9 °F - 7.0 °F 14% 29.70 in 10.0 mi West 21.9 mph 28.8 mph N/A   Clear
2:53 PM 54.0 °F - 10.0 °F 17% 29.70 in 10.0 mi West 11.5 mph 19.6 mph N/A   Clear
3:53 PM 50.0 °F - 10.0 °F 20% 29.71 in 10.0 mi West 12.7 mph - N/A   Clear
4:53 PM 48.0 °F - 10.0 °F 22% 29.71 in 10.0 mi WSW 12.7 mph 19.6 mph N/A   Clear
5:53 PM 43.0 °F - 9.0 °F 25% 29.68 in 10.0 mi Calm Calm - N/A   Clear
6:53 PM 46.0 °F 39.9 °F 8.1 °F 21% 29.68 in 10.0 mi WSW 13.8 mph 19.6 mph N/A   Clear
7:12 PM 48.2 °F - 6.8 °F 19% 29.66 in 10.0 mi WSW 13.8 mph 23.0 mph N/A   Clear
7:53 PM 43.0 °F 41.3 °F 8.1 °F 24% 29.63 in 10.0 mi NE 3.5 mph - N/A   Clear
8:53 PM 46.0 °F 41.9 °F 7.0 °F 20% 29.58 in 10.0 mi South 8.1 mph - N/A   Clear
9:53 PM 43.0 °F 38.8 °F 6.1 °F 22% 29.56 in 10.0 mi SSW 6.9 mph - N/A   Clear
10:53 PM 45.0 °F 42.6 °F 5.0 °F 19% 29.52 in 10.0 mi West 4.6 mph - N/A   Clear
11:53 PM 44.1 °F 40.1 °F 10.0 °F 25% 29.49 in 10.0 mi NW 6.9 mph - N/A   Clear